[[{"header":{"parameterUnit":"m.s-1","parameterCategory":1,"la1":30.2991,"la2":30.254,"lo1":-89.0895,"lo2":-89.0444,"dy":0.0017,"dx":0.0017,"nx":28,"ny":28,"refTime":"2025-04-26T03:00:00:Z","depth":0,"parameterNumber":2,"parameterNumberName":"U-component_of_WINDS"},"data":[0,0,0,0,0,0,0,0,0,0,0,0,0,0,0,0,0,0,0,0,0,0,0,0,0,0,0,0,0,0,0,0,0,0,0,0,0,0,0,0,0,0,0,0,0,0,0,0,0,0,0,0,0,0,0,0,0,0,0.864,0.864,0,0.8711,0.8712,0.8713,0.8721,0.8721,0.872,0.8719,0.8795,0.8798,0.8801,0,0,0,0,0,0,0,0,0,0,0,0,0,0.851,0.8512,0.8639,0.864,0.8641,0.8711,0.8712,0.8713,0.8721,0.8721,0.872,0.8719,0.8795,0.8798,0.8801,0,0,0,0,0,0,0,0,0,0,0,0,0,0.8572,0.8513,0.8639,0.8654,0.8656,0.8711,0.8712,0.8714,0.8722,0.872,0.8719,0.8718,0.8794,0.8797,0.8801,0.8848,0,0,0.8814,0.8816,0,0,0,0,0,0,0,0,0.8569,0.8577,0.8651,0.8653,0.8655,0.8706,0.8695,0.8759,0.8722,0.8697,0.8719,0.8718,0.8767,0.8773,0.8789,0.8852,0.8855,0.8814,0.8817,0.8818,0.882,0,0,0,0,0,0,0,0.8564,0.8574,0.8668,0.8652,0.8654,0.8657,0.8664,0.8707,0.8737,0.8699,0.87,0.8708,0.8768,0.8785,0.8791,0.8856,0.8814,0.8818,0.882,0.8822,0.8958,0.8959,0,0,0,0,0,0,0.8557,0.857,0.8666,0.867,0.8608,0.866,0.8669,0.8691,0.8737,0.8742,0.8709,0.8708,0.8779,0.8786,0.8794,0.8849,0.8818,0.8822,0.8825,0.8957,0.8959,0.896,0,0,0,0,0,0,0.8554,0.8566,0.8663,0.862,0.8633,0.8663,0.8688,0.8693,0.871,0.8744,0.875,0.8721,0.8778,0.8788,0.8834,0.8852,0.8824,0.8828,0.8956,0.8958,0.8959,0.8962,0,0,0,0,0,0,0.8551,0.8565,0.8583,0.8621,0.8635,0.8702,0.869,0.8695,0.8717,0.8716,0.8757,0.8762,0.8778,0.8828,0.8838,0.8857,0.8831,0.8954,0.8957,0.8959,0.8961,0.8964,0.8967,0,0,0,0,0,0.8546,0.8582,0.8584,0.8595,0.8658,0.8703,0.8711,0.8728,0.8718,0.8736,0.8758,0.8761,0.8849,0.8832,0.8844,0.8865,0.8953,0.8956,0.8959,0.8959,0.8963,0.8967,0,0,0,0,0,0,0.8547,0.8587,0.859,0.8639,0.8667,0.8704,0.8728,0.8732,0.8764,0.8762,0.8782,0.8791,0.8836,0.8855,0.8836,0.8911,0.89,0.8905,0.8897,0.8901,0.8904,0.8898,0.8834,0,0,0,0,0,0.8553,0.8585,0.8619,0.8659,0.8673,0.8698,0.8718,0.8728,0.8758,0.877,0.8795,0.8825,0.8859,0.8881,0.8915,0.8964,0.8971,0.8983,0.8986,0.8989,0.8993,0.9018,0.9023,0.8969,0.8969,0.8969,0,0,0.8566,0.8591,0.8611,0.866,0.8683,0.8715,0.8708,0.8743,0.8767,0.8776,0.882,0.8839,0.8874,0.8921,0.8943,0.8938,0.9009,0.8992,0.8994,0.8997,0.9021,0.9026,0.903,0.897,0.897,0.897,0,0,0.8605,0.8628,0.8663,0.8685,0.872,0.8735,0.8744,0.8779,0.8792,0.8836,0.8842,0.8872,0.893,0.8954,0.8974,0.9018,0.9022,0.9029,0.9045,0.9069,0.9073,0.9077,0.9091,0.9096,0.9033,0.9033,0.9033,0,0.8616,0.8665,0.8681,0.8715,0.8735,0.8743,0.8777,0.8799,0.8843,0.8857,0.8851,0.8922,0.8947,0.8998,0.9008,0.9025,0.9034,0.9024,0.9071,0.9075,0.9079,0.9092,0.9098,0.9033,0.9033,0.9033,0.9033,0,0.8676,0.871,0.8734,0.8774,0.8797,0.8832,0.8852,0.8874,0.8881,0.8897,0.8941,0.897,0.9008,0.9021,0.903,0.9073,0.9069,0.9067,0.9056,0.9084,0.9097,0.9103,0.9034,0.9034,0.9034,0.9034,0,0,0.872,0.8765,0.8774,0.879,0.8828,0.8854,0.8888,0.8924,0.8941,0.8971,0.8999,0.9047,0.9044,0.9066,0.9078,0.9099,0.913,0.9094,0.9095,0.9098,0.9177,0.9177,0.9183,0.9132,0.9133,0.9134,0.9173,0,0.8761,0.8821,0.8835,0.8886,0.8916,0.8923,0.8952,0.8978,0.8993,0.9021,0.9039,0.9072,0.9067,0.908,0.9102,0.9121,0.9146,0.9119,0.9158,0.9159,0.9148,0.919,0.9191,0.9226,0.9179,0.9179,0.918,0,0.8819,0.8847,0.89,0.8931,0.8944,0.897,0.9002,0.9029,0.9058,0.9068,0.9091,0.9099,0.9134,0.9122,0.917,0.9151,0.9168,0.918,0.9182,0.9185,0.9171,0.9193,0.9238,0.9243,0.9189,0.9188,0.9187,0,0.8842,0.8894,0.8932,0.8946,0.8983,0.9001,0.9017,0.9045,0.9064,0.9093,0.9106,0.9139,0.9156,0.9182,0.9198,0.9188,0.9244,0.9234,0.9252,0.9252,0.9263,0.9262,0.931,0.9277,0.9276,0.9276,0.9276,0,0.8886,0.8919,0.8942,0.8965,0.9001,0.9016,0.9051,0.9068,0.9092,0.9118,0.9127,0.9151,0.9172,0.92,0.9213,0.9249,0.9258,0.9266,0.9269,0.9265,0.9263,0.9276,0.9273,0.9278,0.9277,0.9277,0.9277,0,0.8918,0.8936,0.8977,0.9007,0.9016,0.904,0.9067,0.9089,0.9104,0.9137,0.9146,0.917,0.9203,0.9222,0.9263,0.9272,0.9312,0.9315,0.9302,0.9303,0.932,0.9317,0.9376,0.9384,0.9346,0.9347,0.9347,0,0.8945,0.8969,0.9002,0.9019,0.9035,0.9064,0.9083,0.9098,0.9118,0.9151,0.9169,0.9202,0.9229,0.928,0.9301,0.9333,0.9335,0.9354,0.934,0.9334,0.9334,0.9331,0.9333,0.9356,0.9356,0.9356,0.9357,0,0.899,0.8996,0.9023,0.9052,0.9074,0.9099,0.9123,0.9137,0.9156,0.9178,0.921,0.9231,0.9272,0.9303,0.9336,0.9353,0.9358,0.9361,0.9366,0.9361,0.9352,0.9355,0.9306,0.9359,0.9359,0.9359,0.9359,0.9358,0.9019,0.904,0.9065,0.9094,0.9113,0.9134,0.9156,0.9173,0.92,0.9233,0.9241,0.9274,0.9301,0.9344,0.9362,0.9388,0.9385,0.9394,0.9396,0.9398,0.9397,0.9348,0.9395,0.9395,0.9395,0.9395,0.9395,0,0.9062,0.9078,0.9104,0.9136,0.9159,0.916,0.9186,0.9205,0.9233,0.9257,0.9282,0.9318,0.9348,0.9371,0.9402,0.9418,0.9421,0.9426,0.9424,0.9428,0.9399,0.939,0.9423,0.9423,0.9423,0.9423,0.9423,0.9423,0.9087,0.9122,0.9131,0.9174,0.919,0.9222,0.9236,0.9256,0.9274,0.9313,0.9338,0.9352,0.9375,0.9407,0.9434,0.944,0.9451,0.9455,0.9461,0.9433,0.943,0.9427,0.9419,0.9457,0.9457,0.9487,0.9487,0.9488]},{"header":{"parameterUnit":"m.s-1","parameterCategory":1,"la1":30.2991,"la2":30.254,"lo1":-89.0895,"lo2":-89.0444,"dy":0.0017,"dx":0.0017,"nx":28,"ny":28,"refTime":"2025-04-26T03:00:00:Z","depth":0,"parameterNumber":3,"parameterNumberName":"V-component_of_WINDS"},"data":[0,0,0,0,0,0,0,0,0,0,0,0,0,0,0,0,0,0,0,0,0,0,0,0,0,0,0,0,0,0,0,0,0,0,0,0,0,0,0,0,0,0,0,0,0,0,0,0,0,0,0,0,0,0,0,0,0,0,1.3125,1.3125,0,1.3125,1.3125,1.3125,1.3101,1.3101,1.31,1.31,1.3099,1.3099,1.31,0,0,0,0,0,0,0,0,0,0,0,0,0,1.3101,1.3101,1.3125,1.3125,1.3125,1.3125,1.3125,1.3125,1.3102,1.3101,1.31,1.3099,1.3098,1.3099,1.31,0,0,0,0,0,0,0,0,0,0,0,0,0,1.3107,1.3101,1.3125,1.3113,1.3112,1.3125,1.3125,1.3125,1.3102,1.3101,1.31,1.3099,1.3098,1.3099,1.31,1.3124,0,0,1.3102,1.3103,0,0,0,0,0,0,0,0,1.3107,1.3108,1.3115,1.3114,1.3113,1.3112,1.3116,1.3125,1.3102,1.3106,1.31,1.3099,1.3104,1.3104,1.3106,1.3123,1.3123,1.3102,1.3103,1.3103,1.3103,0,0,0,0,0,0,0,1.3106,1.3108,1.3125,1.3115,1.3114,1.3107,1.3107,1.3118,1.311,1.3105,1.3103,1.3104,1.3103,1.3105,1.3106,1.3123,1.3102,1.3103,1.3104,1.3104,1.3158,1.3158,0,0,0,0,0,0,1.3108,1.3108,1.3125,1.3125,1.3107,1.3108,1.3108,1.3113,1.311,1.3108,1.3105,1.3103,1.3104,1.3105,1.3106,1.3132,1.3103,1.3104,1.3104,1.3157,1.3158,1.3159,0,0,0,0,0,0,1.3107,1.311,1.3125,1.3116,1.3117,1.3109,1.3116,1.3114,1.3116,1.3109,1.3108,1.3109,1.3104,1.3105,1.3119,1.3131,1.3104,1.3105,1.3156,1.3157,1.3158,1.3185,0,0,0,0,0,0,1.3107,1.311,1.3119,1.3116,1.3118,1.3139,1.3117,1.3115,1.3118,1.3115,1.3113,1.3111,1.3103,1.3118,1.312,1.3132,1.3106,1.3154,1.3156,1.3158,1.3183,1.3187,1.3191,0,0,0,0,0,1.3106,1.3127,1.312,1.3122,1.313,1.314,1.314,1.3131,1.3119,1.3128,1.3123,1.3111,1.313,1.3119,1.3121,1.3134,1.3153,1.3156,1.3158,1.3181,1.3186,1.319,0,0,0,0,0,0,1.3132,1.3127,1.3119,1.314,1.314,1.3136,1.3147,1.3137,1.3141,1.3138,1.3126,1.3125,1.3141,1.3139,1.3128,1.3156,1.3139,1.3142,1.3156,1.3161,1.3165,1.3165,1.3106,0,0,0,0,0,1.314,1.3149,1.3144,1.3163,1.3163,1.3155,1.3159,1.3151,1.3152,1.3152,1.3148,1.3148,1.3153,1.3157,1.3162,1.3182,1.318,1.3192,1.3196,1.3199,1.3201,1.321,1.3214,1.3166,1.3166,1.3166,0,0,1.3157,1.3155,1.3162,1.3168,1.3167,1.3176,1.3156,1.3166,1.3172,1.3153,1.3166,1.3163,1.3162,1.3179,1.3186,1.3177,1.3214,1.3202,1.3204,1.3205,1.3212,1.3217,1.3221,1.3167,1.3167,1.3167,0,0,1.3192,1.3193,1.3207,1.3207,1.3207,1.3201,1.3204,1.3201,1.3198,1.3211,1.3196,1.3202,1.3213,1.3212,1.3213,1.3245,1.3234,1.3247,1.3267,1.3276,1.3279,1.3283,1.3293,1.3296,1.3249,1.325,1.325,0,1.3213,1.3226,1.3216,1.3227,1.3229,1.3212,1.3226,1.3226,1.3227,1.3228,1.3219,1.323,1.3229,1.3244,1.3252,1.3253,1.3256,1.3247,1.328,1.3283,1.3286,1.3295,1.3299,1.3251,1.3251,1.3251,1.3251,0,1.3251,1.326,1.3272,1.3273,1.3277,1.3289,1.3279,1.3284,1.3275,1.327,1.3282,1.3279,1.3282,1.3285,1.3277,1.3299,1.3293,1.3282,1.3265,1.3292,1.3301,1.3304,1.3253,1.3253,1.3252,1.3252,0,0,1.3304,1.3298,1.3302,1.3301,1.3299,1.3305,1.3315,1.3318,1.3322,1.3323,1.333,1.3338,1.3327,1.3328,1.332,1.3328,1.3351,1.3315,1.3315,1.3321,1.3372,1.338,1.3384,1.3343,1.3344,1.3345,1.3372,0,1.3336,1.3355,1.3345,1.3364,1.3371,1.3354,1.3363,1.3362,1.3357,1.3361,1.3355,1.336,1.3346,1.3346,1.3353,1.3347,1.3361,1.3345,1.3349,1.3349,1.3349,1.3389,1.3397,1.3423,1.3375,1.3376,1.3376,0,1.3377,1.3379,1.3399,1.3393,1.3396,1.3404,1.3405,1.341,1.3407,1.3402,1.3403,1.3392,1.34,1.3384,1.3395,1.3384,1.3385,1.3382,1.3382,1.3382,1.3364,1.3388,1.3431,1.3435,1.3381,1.3381,1.3381,0,1.3411,1.3419,1.3431,1.3432,1.3425,1.3431,1.3429,1.3425,1.3427,1.3427,1.3428,1.3429,1.343,1.3431,1.342,1.3409,1.3431,1.3414,1.3426,1.3427,1.3431,1.3431,1.3474,1.3434,1.3434,1.3434,1.3434,0,1.3448,1.3461,1.3446,1.3454,1.3466,1.3454,1.3467,1.3462,1.3459,1.3464,1.345,1.3455,1.3441,1.3445,1.3436,1.3445,1.3446,1.3441,1.3439,1.3442,1.3442,1.3442,1.3439,1.3435,1.3434,1.3434,1.3434,0,1.3489,1.348,1.3492,1.3484,1.3483,1.3492,1.3485,1.3491,1.3485,1.3491,1.3492,1.3482,1.3484,1.3474,1.3475,1.3469,1.3482,1.3477,1.3483,1.3481,1.3493,1.3492,1.3537,1.3541,1.3499,1.3499,1.35,0,1.3513,1.3521,1.3515,1.3517,1.3515,1.352,1.3521,1.3509,1.3511,1.3507,1.3513,1.3515,1.3515,1.3521,1.3512,1.3513,1.3507,1.3522,1.3507,1.3509,1.3505,1.3504,1.3504,1.3526,1.3526,1.3527,1.3527,0,1.3555,1.355,1.3552,1.3553,1.3555,1.3555,1.3554,1.3556,1.3543,1.3545,1.3548,1.3549,1.3549,1.355,1.3549,1.3545,1.3533,1.3532,1.3534,1.3537,1.354,1.3537,1.3491,1.3531,1.353,1.353,1.353,1.353,1.3587,1.3593,1.3589,1.3592,1.3589,1.3588,1.3593,1.3586,1.3588,1.3588,1.358,1.3584,1.3579,1.3576,1.3573,1.3575,1.3567,1.3571,1.3572,1.3573,1.3574,1.354,1.3575,1.3574,1.3574,1.3574,1.3574,0,1.3627,1.3623,1.3626,1.3624,1.3626,1.3615,1.3613,1.3615,1.3618,1.3615,1.3615,1.3617,1.3618,1.361,1.3609,1.3612,1.3606,1.3612,1.3611,1.361,1.3582,1.3579,1.3616,1.3616,1.3616,1.3616,1.3616,1.3616,1.3648,1.3658,1.3652,1.3659,1.3655,1.3659,1.3658,1.3656,1.3653,1.3656,1.3656,1.3651,1.3645,1.3643,1.3643,1.364,1.364,1.3647,1.3642,1.3616,1.3612,1.3608,1.3606,1.3647,1.3647,1.367,1.367,1.367]}]]